Location: Poprad
(49.0500°N, 20.3000°E)
Time: 02:02:19
(UTC+01:00)

ISS - Pass Details

Date: 30 January 2021
Orbit: 417 x 422 km, 51.6° (Epoch: 06 March)

Event Time Altitude Azimuth Distance (km) Brightness Sun altitude
Rises 18:51:25 0° 289° (WNW) 2,376 1.3 -22.7°
Reaches altitude 10° 18:53:32 10° 289° (WNW) 1,510 0.0 -23.1°
Enters shadow 18:56:01 46° 283° (WNW) 580 -2.7 -23.5°
